EW6519 Weather Reports


Display with metric or nautical units.
time (UTC)temp
F
wind
direction
speed
MPH
gust
MPH
rain 1hr
in
rain 24hr
in
rain mn
in
humidity
%
barometer
mb
20260831053057 77 172 0.0 0.0 0.00 0.00 0.00 75 1016.3
20260831051550 77 146 0.0 2.0 0.00 0.00 0.00 75 1016.2
20260831050105 77 159 0.0 0.0 0.00 0.00 0.00 75 1016.2
20260831044549 77 160 0.0 0.0 0.00 0.00 0.00 74 1016.2
20260831043051 77 149 0.0 0.0 0.00 0.00 0.00 74 1016.2
20260831041553 77 167 0.0 0.0 0.00 0.00 0.00 73 1016.3
20260831040041 78 167 0.0 0.0 0.00 0.00 0.00 72 1016.4
20260831034542 78 167 0.0 0.0 0.00 0.00 0.00 72 1016.4
20260831033046 79 167 0.0 0.0 0.00 0.00 0.00 71 1016.4
20260831031547 79 167 0.0 0.0 0.00 0.00 0.00 70 1016.3
20260831030038 79 181 0.0 0.0 0.00 0.00 0.00 69 1016.3
20260831024537 80 156 0.0 0.0 0.00 0.00 0.00 69 1016.5
20260831023036 80 156 0.0 0.0 0.00 0.00 0.00 68 1016.4
20260831021536 80 156 0.0 0.0 0.00 0.00 0.00 66 1016.3
20260831020036 81 156 0.0 0.0 0.00 0.00 0.00 66 1016.3
20260831014539 81 156 0.0 0.0 0.00 0.00 0.00 66 1016.3
20260831013049 81 156 0.0 0.0 0.00 0.00 0.00 65 1016.2
20260831011533 82 156 0.0 0.0 0.00 0.00 0.00 64 1016.0
20260831010033 82 156 0.0 0.0 0.00 0.00 0.00 62 1015.8
20260831004533 83 156 0.0 0.0 0.00 0.00 0.00 62 1015.8
20260831003032 83 156 0.0 0.0 0.00 0.00 0.00 61 1015.6
20260831001535 84 156 0.0 0.0 0.00 0.00 0.00 59 1015.5
20260831000031 85 156 0.0 0.0 0.00 0.00 0.00 57 1015.6
20260830234531 86 238 0.0 0.0 0.00 0.00 0.00 55 1015.5
20260830233029 86 153 0.0 3.0 0.00 0.00 0.00 54 1015.3
20260830231529 87 149 1.0 5.0 0.00 0.00 0.00 53 1015.1
20260830230029 88 155 0.0 6.0 0.00 0.00 0.00 53 1015.0
20260830224527 88 240 0.0 0.0 0.00 0.00 0.00 52 1015.2
20260830223027 89 196 1.0 6.0 0.00 0.00 0.00 50 1014.9
20260830221525 90 172 1.0 9.0 0.00 0.00 0.00 48 1014.9
20260830220023 91 230 0.0 0.0 0.00 0.00 0.00 47 1015.1
20260830214522 92 255 0.0 0.0 0.00 0.00 0.00 47 1015.2
20260830213019 91 119 2.0 11.0 0.00 0.00 0.00 47 1015.3
20260830211519 92 188 0.0 4.0 0.00 0.00 0.00 45 1015.4
20260830210016 93 281 0.0 6.0 0.00 0.00 0.00 43 1015.7
20260830204516 94 214 0.0 5.0 0.00 0.00 0.00 44 1015.7
20260830203021 92 250 0.0 0.0 0.00 0.00 0.00 45 1015.9
20260830201508 91 239 0.0 8.0 0.00 0.00 0.00 45 1016.1
20260830200006 90 197 0.0 5.0 0.00 0.00 0.00 47 1016.3
20260830194505 89 212 0.0 3.0 0.00 0.00 0.00 49 1016.6
20260830193003 90 314 0.0 2.0 0.00 0.00 0.00 47 1016.8
20260830191603 90 5 0.0 3.0 0.00 0.00 0.00 47 1017.1
20260830190100 91 252 2.0 7.0 0.00 0.00 0.00 47 1017.3
20260830184559 90 252 0.0 3.0 0.00 0.00 0.00 50 1017.5
20260830183114 90 273 0.0 2.0 0.00 0.00 0.00 48 1017.8
20260830181558 92 274 0.0 9.0 0.00 0.00 0.00 45 1017.9
20260830180104 91 224 1.0 8.0 0.00 0.00 0.00 46 1018.1
20260830174558 90 236 0.0 5.0 0.00 0.00 0.00 49 1018.2
20260830173110 91 305 0.0 8.0 0.00 0.00 0.00 49 1018.4
20260830171553 91 264 0.0 9.0 0.00 0.00 0.00 47 1018.5
20260830170055 90 278 2.0 8.0 0.00 0.00 0.00 46 1018.5
20260830164556 90 295 2.0 9.0 0.00 0.00 0.00 51 1018.4
20260830163056 89 240 3.0 9.0 0.00 0.00 0.00 50 1018.3
20260830161602 89 206 3.0 11.0 0.00 0.00 0.00 50 1018.4
20260830160044 89 228 2.0 11.0 0.00 0.00 0.00 52 1018.4
20260830154544 88 208 2.0 7.0 0.00 0.00 0.00 56 1018.4
20260830153047 89 216 0.0 5.0 0.00 0.00 0.00 58 1018.4
20260830151541 87 152 0.0 4.0 0.00 0.00 0.00 62 1018.4
20260830150039 86 229 0.0 4.0 0.00 0.00 0.00 63 1018.2
20260830144531 84 259 0.0 4.0 0.00 0.00 0.00 66 1018.0
20260830143916 84 167 2.0 4.0 0.00 0.00 0.00 68 1019.6
20260830143052 83 136 0.0 0.0 0.00 0.00 0.00 68 1017.9
20260830141549 81 236 1.0 5.0 0.00 0.00 0.00 70 1017.7
20260830140048 80 143 0.0 3.0 0.00 0.00 0.00 72 1017.4
20260830134544 79 141 0.0 0.0 0.00 0.00 0.00 74 1017.5
20260830133041 78 150 1.0 5.0 0.00 0.00 0.00 75 1017.6
20260830131545 76 120 0.0 0.0 0.00 0.00 0.00 77 1017.9
20260830130032 74 227 1.0 5.0 0.00 0.00 0.00 80 1017.9
20260830124530 73 158 0.0 0.0 0.00 0.00 0.00 82 1018.0
20260830123029 71 146 0.0 0.0 0.00 0.00 0.00 87 1017.9
20260830121528 69 137 0.0 0.0 0.00 0.00 0.00 89 1017.8
20260830120029 68 137 0.0 0.0 0.00 0.00 0.00 89 1017.6
20260830114530 68 160 0.0 0.0 0.00 0.00 0.00 90 1017.4
20260830113029 67 160 0.0 0.0 0.00 0.00 0.00 90 1017.4
20260830111526 68 148 0.0 0.0 0.00 0.00 0.00 89 1017.4
20260830110023 68 195 0.0 0.0 0.00 0.00 0.00 88 1017.3
20260830104521 69 231 0.0 0.0 0.00 0.00 0.00 87 1017.3
20260830103022 69 234 0.0 0.0 0.00 0.00 0.00 86 1017.2
20260830101517 69 235 0.0 0.0 0.00 0.00 0.00 85 1017.2
20260830100017 69 160 0.0 0.0 0.00 0.00 0.00 85 1017.2
20260830094514 70 161 0.0 0.0 0.00 0.00 0.00 84 1017.0
20260830093012 70 160 0.0 0.0 0.00 0.00 0.00 83 1017.2
20260830091532 70 163 0.0 0.0 0.00 0.00 0.00 83 1017.0
20260830090013 70 159 0.0 0.0 0.00 0.00 0.00 83 1017.1
20260830084509 70 160 0.0 0.0 0.00 0.00 0.00 83 1017.1
20260830083008 71 141 0.0 0.0 0.00 0.00 0.00 82 1017.2
20260830081514 71 138 0.0 0.0 0.00 0.00 0.00 82 1017.2
20260830080006 71 138 0.0 0.0 0.00 0.00 0.00 82 1017.3
20260830074515 71 138 0.0 0.0 0.00 0.00 0.00 81 1017.3
20260830073003 71 139 0.0 0.0 0.00 0.00 0.00 81 1017.5
20260830071502 72 138 0.0 0.0 0.00 0.00 0.00 80 1017.5
20260830070001 72 138 0.0 0.0 0.00 0.00 0.00 80 1017.7
20260830064634 72 138 0.0 0.0 0.00 0.00 0.00 79 1017.6
20260830063100 72 138 0.0 0.0 0.00 0.00 0.00 79 1017.8
20260830061620 72 138 0.0 0.0 0.00 0.00 0.00 78 1017.9
20260830060058 73 139 0.0 0.0 0.00 0.00 0.00 77 1017.9
20260830054600 73 139 0.0 0.0 0.00 0.00 0.00 76 1017.9